Regional Weather Roundup
Issued by NWS

Home | Current Version | Previous Version | Graphics & Text | Print | Product List | Glossary On
Versions: 1 2 3 4 5 6 7 8 9 10 11 12 13 14 15 16 17 18 19 20 21 22 23 24 25 26 27 28 29 30 31 32 33 34 35 36 37 38 39 40 41 42 43 44 45 46 47 48 49 50
000
ASUS44 KMEG 251110
RWRTN
TENNESSEE HOURLY STATE WEATHER ROUNDUP
NATIONAL WEATHER SERVICE MEMPHIS TN
600 AM CDT FRI JUL 25 2014

TNZ002-004-019-021-049-052-054-088>092-251200-
WEST TENNESSEE

CITY           SKY/WX    TMP DP  RH WIND       PRES   REMARKS
MEMPHIS INTL   PTCLDY    66  60  81 E5        30.03R
NWS MEMPHIS      N/A     61 N/A N/A MISG        N/A
JACKSON        CLEAR     58  56  93 CALM      30.04S FOG
DYERSBURG      CLEAR     61  52  72 NE5       30.05R
UNION CITY     CLEAR     57  57 100 CALM      30.04S
PARIS          CLEAR     55  54  97 CALM      30.06S
LEXINGTON      CLEAR     59  57  94 CALM      30.05R
SAVANNAH       CLOUDY    61  61 100 CALM      30.05R VSB 1/4
$$

TNZ008-025-027-028-033-062-065-066-251200-
NORTH MIDDLE TENNESSEE

CITY           SKY/WX    TMP DP  RH WIND       PRES   REMARKS
NASHVILLE      PTCLDY    63  58  83 CALM      30.08R
DICKSON        CLEAR     57  55  94 CALM      30.07R
PORTLAND       CLEAR     55  54  94 CALM      30.08R
CLARKSVILLE    CLEAR     56  54  93 CALM      30.07R
LEBANON        CLEAR     57  56  97 CALM      30.06R
SMYRNA         FOG       60  60 100 CALM      30.08R VSB 1/4
MURFREESBORO   CLEAR     61  60  96 CALM      30.06R
COOKEVILLE     MOCLDY    54  54 100 CALM      30.08R VSB 1/2
LIVINGSTON       N/A     57  57 100 CALM      30.09R
GALLATIN       CLEAR     58  56  93 CALM      30.08R
CROSSVILLE     FOG       57  56  96 CALM      30.10R VSB<1/4
$$

TNZ061-075-076-078-094-096-097-251200-
SOUTH MIDDLE TENNESSEE

CITY           SKY/WX    TMP DP  RH WIND       PRES   REMARKS
LEWISBURG      CLEAR     58  56  93 CALM      30.06R
FAYETTEVILLE   CLEAR     63  61  94 NE10      30.06R
TULLAHOMA      CLEAR     61  59  94 CALM      30.08R
WINCHESTER     CLEAR     61  59  94 CALM      30.07R
MCMINNVILLE    CLOUDY    57  57 100 CALM      30.08R VSB 1/2
COLUMBIA       CLEAR     61  61 100 CALM      30.05R
SHELBYVILLE    CLEAR     61  59  94 CALM      30.08R
$$

TNZ017-018-042-046-047-251200-
NORTHEAST TENNESSEE

CITY           SKY/WX    TMP DP  RH WIND       PRES   REMARKS
TRI CITIES     PTCLDY    60  57  89 CALM      30.08R
ELIZABETHTON   MOSUNNY   61  59  94 NE3       30.06R
$$

TNZ012-013-036-069-073-074-251200-
CENTRAL EAST TENNESSEE

CITY           SKY/WX    TMP DP  RH WIND       PRES   REMARKS
KNOXVILLE      CLOUDY    63  62  97 CALM      30.05S
OAK RIDGE      CLEAR     62  60  93 CALM      30.08R
GATLINBURG     MOSUNNY   63  61  94 CALM      30.06R
MORRISTOWN     SUNNY     61  61 100 NE5       30.08S
$$

TNZ083-085-099-251200-
SOUTHEAST TENNESSEE

CITY           SKY/WX    TMP DP  RH WIND       PRES   REMARKS
CHATTANOOGA    MOCLDY    66  61  84 CALM      30.05R
$$

SKY/WX REPORTED AS FAIR MEANS FEW OR NO CLOUDS BELOW
12 THOUSAND FEET.




USA.gov is the U.S. government's official web portal to all federal, state and local government web resources and services.